カタログに戻る

SL-6 R/B(2)

運用中HEO
NORAD 18704·ROCKET BODY·🇷🇺 Russia

打ち上げ Dec 21, 1987 から Plesetsk Cosmodrome

Loading…

次のパス (今後24時間)

TLE

最新Source: Space-Track

元期: Sep 10, 2026, 20:37 UTC

1 18704U 87105D   26253.85919083 -.00000149  00000-0  00000-0 0  9997
2 18704  67.6640 260.6050 5620865  52.4362 346.5544  2.04200898252603

AllMySatでSL-6 R/B(2)をリアルタイム追跡

Download on the App Store